When you browse on this site, cookies collect data to enhance your experience and personalize the content and advertising you see.
Visit our Privacy Policy to learn more. By continuing to use the site, you agree to this use of cookies and data.
  • în România
  • Lista ţărilor
  • Pe 7 zile
  • Temperatura apei
  • Hartă satelitară
  • Meteo pe hartă
  • Widget-uri
  • user-avatar
    Intrare

    Meteo pe oră la Limerick

    Astăzi, 21 Noiembrie, Miercuri

    Timp Temperatura Precipitaţii Vânt Presiune Umiditate
    00:00 +3°C° 0 mm 4 m/s 755 mmHg 93%
    01:00 +3°C° 0 mm 3 m/s 755 mmHg 93%
    02:00 +2°C° 0 mm 3 m/s 754 mmHg 94%
    03:00 +2°C° 0 mm 3 m/s 754 mmHg 95%
    04:00 +3°C° 0 mm 2 m/s 754 mmHg 95%
    05:00 +3°C° 0 mm 2 m/s 754 mmHg 96%
    06:00 +3°C° 0.2 mm 2 m/s 753 mmHg 95%
    07:00 +5°C° 0.2 mm 1 m/s 753 mmHg 95%
    08:00 +5°C° 0.2 mm 1 m/s 753 mmHg 95%
    09:00 +6°C° 0.3 mm 1 m/s 753 mmHg 93%
    10:00 +5°C° 0.3 mm 2 m/s 753 mmHg 91%
    11:00 +6°C° 0.3 mm 2 m/s 753 mmHg 89%
    12:00 +6°C° 0.4 mm 2 m/s 753 mmHg 87%
    13:00 +5°C° 0.4 mm 3 m/s 753 mmHg 86%
    14:00 +5°C° 0.4 mm 3 m/s 753 mmHg 85%
    15:00 +4°C° 0.1 mm 3 m/s 754 mmHg 87%
    16:00 +3°C° 0.1 mm 3 m/s 754 mmHg 90%
    17:00 +3°C° 0.1 mm 3 m/s 755 mmHg 92%
    18:00 +3°C° 0 mm 3 m/s 755 mmHg 92%
    19:00 +3°C° 0 mm 4 m/s 756 mmHg 92%
    20:00 +3°C° 0 mm 4 m/s 756 mmHg 92%
    21:00 +3°C° 0 mm 4 m/s 757 mmHg 92%
    22:00 +3°C° 0 mm 4 m/s 757 mmHg 92%
    23:00 +3°C° 0 mm 4 m/s 757 mmHg 92%

    Mâine, 22 Noiembrie, Joi

    Timp Temperatura Precipitaţii Vânt Presiune Umiditate
    00:00 +4°C° 0.5 mm 4 m/s 757 mmHg 91%
    01:00 +5°C° 0.5 mm 5 m/s 757 mmHg 91%
    02:00 +5°C° 0.5 mm 5 m/s 757 mmHg 90%
    03:00 +6°C° 0.3 mm 5 m/s 757 mmHg 90%
    04:00 +5°C° 0.3 mm 6 m/s 757 mmHg 89%
    05:00 +5°C° 0.3 mm 6 m/s 757 mmHg 89%
    06:00 +5°C° 0 mm 6 m/s 758 mmHg 88%
    07:00 +4°C° 0 mm 6 m/s 758 mmHg 88%
    08:00 +4°C° 0 mm 6 m/s 758 mmHg 88%
    09:00 +4°C° 0 mm 6 m/s 758 mmHg 86%
    10:00 +5°C° 0 mm 6 m/s 758 mmHg 84%
    11:00 +5°C° 0 mm 7 m/s 758 mmHg 82%
    12:00 +5°C° 0 mm 7 m/s 758 mmHg 81%
    13:00 +5°C° 0 mm 6 m/s 758 mmHg 79%
    14:00 +5°C° 0 mm 6 m/s 758 mmHg 78%
    15:00 +5°C° 0 mm 5 m/s 758 mmHg 81%
    16:00 +3°C° 0 mm 5 m/s 758 mmHg 85%
    17:00 +2°C° 0 mm 5 m/s 758 mmHg 89%
    18:00 +3°C° 0 mm 4 m/s 758 mmHg 89%
    19:00 +3°C° 0 mm 4 m/s 758 mmHg 90%
    20:00 +3°C° 0 mm 4 m/s 758 mmHg 91%
    21:00 +3°C° 0 mm 4 m/s 758 mmHg 91%
    22:00 +3°C° 0 mm 4 m/s 758 mmHg 92%
    23:00 +3°C° 0 mm 4 m/s 757 mmHg 92%

    Poimâine, 23 Noiembrie, Vineri

    Timp Temperatura Precipitaţii Vânt Presiune Umiditate
    00:00 +3°C° 0 mm 4 m/s 757 mmHg 92%
    01:00 +1°C° 0 mm 4 m/s 757 mmHg 93%
    02:00 +1°C° 0 mm 4 m/s 757 mmHg 93%
    03:00 +1°C° 0 mm 4 m/s 756 mmHg 92%
    04:00 +1°C° 0 mm 4 m/s 756 mmHg 92%
    05:00 +1°C° 0 mm 4 m/s 755 mmHg 91%
    06:00 +3°C° 0 mm 4 m/s 755 mmHg 92%
    07:00 +3°C° 0 mm 4 m/s 755 mmHg 92%
    08:00 +2°C° 0 mm 5 m/s 755 mmHg 92%
    09:00 +3°C° 0.2 mm 5 m/s 755 mmHg 91%
    10:00 +5°C° 0.2 mm 5 m/s 754 mmHg 89%
    11:00 +6°C° 0.2 mm 5 m/s 754 mmHg 87%
    12:00 +6°C° 0.4 mm 5 m/s 754 mmHg 88%
    13:00 +6°C° 0.4 mm 5 m/s 753 mmHg 89%
    14:00 +6°C° 0.4 mm 5 m/s 753 mmHg 90%
    15:00 +6°C° 0.5 mm 4 m/s 753 mmHg 92%
    16:00 +6°C° 0.5 mm 4 m/s 753 mmHg 93%
    17:00 +6°C° 0.5 mm 4 m/s 753 mmHg 95%
    18:00 +5°C° 0.1 mm 3 m/s 754 mmHg 95%
    19:00 +5°C° 0.1 mm 3 m/s 754 mmHg 96%
    20:00 +6°C° 0.1 mm 2 m/s 754 mmHg 96%
    21:00 +6°C° 0 mm 2 m/s 754 mmHg 96%
    22:00 +6°C° 0 mm 2 m/s 754 mmHg 96%
    23:00 +6°C° 0 mm 1 m/s 754 mmHg 96%

    24 Noiembrie, Sâmbătă

    Timp Temperatura Precipitaţii Vânt Presiune Umiditate
    00:00 +7°C° 0 mm 1 m/s 754 mmHg 96%
    01:00 +7°C° 0 mm 1 m/s 755 mmHg 96%
    02:00 +7°C° 0 mm 1 m/s 755 mmHg 96%
    03:00 +6°C° 0.1 mm 2 m/s 755 mmHg 96%
    04:00 +6°C° 0.1 mm 2 m/s 755 mmHg 96%
    05:00 +7°C° 0.1 mm 2 m/s 755 mmHg 96%
    06:00 +7°C° 0.1 mm 3 m/s 755 mmHg 95%
    07:00 +7°C° 0.1 mm 3 m/s 756 mmHg 95%
    08:00 +7°C° 0.1 mm 3 m/s 756 mmHg 95%
    09:00 +6°C° 0.1 mm 4 m/s 756 mmHg 92%
    10:00 +7°C° 0.1 mm 4 m/s 756 mmHg 90%
    11:00 +8°C° 0.1 mm 4 m/s 756 mmHg 88%
    12:00 +8°C° 0 mm 4 m/s 756 mmHg 88%
    13:00 +8°C° 0 mm 4 m/s 756 mmHg 88%
    14:00 +9°C° 0 mm 3 m/s 756 mmHg 88%
    15:00 +8°C° 0 mm 3 m/s 756 mmHg 90%
    16:00 +8°C° 0 mm 3 m/s 756 mmHg 92%
    17:00 +7°C° 0 mm 3 m/s 756 mmHg 94%
    18:00 +7°C° 0 mm 3 m/s 757 mmHg 94%
    19:00 +5°C° 0 mm 3 m/s 757 mmHg 95%
    20:00 +5°C° 0 mm 3 m/s 757 mmHg 95%
    21:00 +5°C° 0 mm 3 m/s 757 mmHg 95%
    22:00 +5°C° 0 mm 3 m/s 757 mmHg 96%
    23:00 +4°C° 0 mm 3 m/s 757 mmHg 96%

    25 Noiembrie, Duminică

    Timp Temperatura Precipitaţii Vânt Presiune Umiditate
    00:00 +4°C° 0 mm 3 m/s 757 mmHg 96%
    01:00 +4°C° 0 mm 3 m/s 756 mmHg 97%
    02:00 +3°C° 0 mm 3 m/s 756 mmHg 97%
    03:00 +3°C° 0 mm 3 m/s 756 mmHg 97%
    04:00 +3°C° 0 mm 3 m/s 756 mmHg 96%
    05:00 +3°C° 0 mm 3 m/s 756 mmHg 96%
    06:00 +4°C° 0 mm 3 m/s 756 mmHg 96%
    07:00 +4°C° 0 mm 3 m/s 756 mmHg 95%
    08:00 +4°C° 0 mm 3 m/s 756 mmHg 95%
    09:00 +5°C° 0 mm 4 m/s 756 mmHg 91%
    10:00 +6°C° 0 mm 4 m/s 756 mmHg 88%
    11:00 +7°C° 0 mm 5 m/s 755 mmHg 84%
    12:00 +7°C° 0 mm 5 m/s 755 mmHg 84%
    13:00 +7°C° 0 mm 5 m/s 754 mmHg 84%
    14:00 +7°C° 0 mm 4 m/s 754 mmHg 84%
    15:00 +6°C° 0 mm 4 m/s 754 mmHg 86%
    16:00 +6°C° 0 mm 4 m/s 753 mmHg 89%
    17:00 +5°C° 0 mm 4 m/s 753 mmHg 91%
    18:00 +5°C° 0 mm 4 m/s 753 mmHg 92%
    19:00 +5°C° 0 mm 4 m/s 753 mmHg 93%
    20:00 +4°C° 0 mm 4 m/s 752 mmHg 94%
    21:00 +4°C° 0 mm 4 m/s 752 mmHg 94%
    22:00 +4°C° 0 mm 4 m/s 752 mmHg 94%
    23:00 +4°C° 0 mm 4 m/s 751 mmHg 93%

    26 Noiembrie, Luni

    Timp Temperatura Precipitaţii Vânt Presiune Umiditate
    00:00 +4°C° 0 mm 4 m/s 751 mmHg 93%
    01:00 +4°C° 0 mm 4 m/s 751 mmHg 93%
    02:00 +4°C° 0 mm 4 m/s 751 mmHg 93%
    03:00 +4°C° 0 mm 4 m/s 751 mmHg 93%
    04:00 +4°C° 0 mm 4 m/s 750 mmHg 92%
    05:00 +4°C° 0 mm 4 m/s 750 mmHg 92%
    06:00 +4°C° 0 mm 4 m/s 750 mmHg 92%
    07:00 +5°C° 0 mm 4 m/s 750 mmHg 92%
    08:00 +5°C° 0 mm 4 m/s 750 mmHg 92%
    09:00 +6°C° 0.2 mm 4 m/s 750 mmHg 91%
    10:00 +6°C° 0.2 mm 4 m/s 750 mmHg 91%
    11:00 +7°C° 0.2 mm 4 m/s 750 mmHg 91%
    12:00 +8°C° 0.2 mm 3 m/s 750 mmHg 91%
    13:00 +8°C° 0.2 mm 3 m/s 749 mmHg 92%
    14:00 +8°C° 0.2 mm 3 m/s 749 mmHg 92%
    15:00 +7°C° 0.2 mm 3 m/s 749 mmHg 93%
    16:00 +7°C° 0.2 mm 3 m/s 749 mmHg 94%
    17:00 +7°C° 0.2 mm 3 m/s 749 mmHg 96%
    18:00 +5°C° 0.3 mm 3 m/s 750 mmHg 95%
    19:00 +5°C° 0.3 mm 3 m/s 750 mmHg 95%
    20:00 +5°C° 0.3 mm 3 m/s 750 mmHg 95%
    21:00 +5°C° 0.1 mm 3 m/s 751 mmHg 95%
    22:00 +5°C° 0.1 mm 3 m/s 751 mmHg 94%
    23:00 +5°C° 0.1 mm 4 m/s 751 mmHg 94%
    Arată mai mult